9M4GHZ-13 Weather Reports


time (UTC)temp
C
wind
direction
speed
KPH
gust
KPH
rain 1hr
cm
rain 24hr
cm
rain mn
cm
humidity
%
barometer
mb
20260504190004 24 67 0.0 1.6 0.00 0.00 0.00 96 1009.5
20260504185004 24 90 1.6 3.2 0.00 0.00 0.00 96 1009.4
20260504184005 24 90 3.2 3.2 0.00 0.00 0.00 96 1009.5
20260504183005 24 67 1.6 3.2 0.00 0.00 0.00 96 1009.6
20260504182003 24 67 1.6 3.2 0.00 0.00 0.00 95 1009.7
20260504181004 25 45 1.6 3.2 0.00 0.00 0.00 93 1009.8
20260504180005 25 135 0.0 1.6 0.00 0.00 0.00 92 1009.5
20260504175004 25 180 0.0 1.6 0.00 0.00 0.00 92 1009.6
20260504174005 25 180 3.2 3.2 0.00 0.00 0.00 92 1009.6
20260504173005 25 157 1.6 3.2 0.00 0.00 0.00 92 1009.9
20260504172003 25 135 0.0 1.6 0.00 0.00 0.00 92 1010.1
20260504171005 25 202 0.0 1.6 0.00 0.00 0.00 92 1010.4
20260504151005 25 135 0.0 3.2 0.00 0.00 0.00 87 1010.4
20260504141005 25 135 3.2 4.8 0.00 0.00 0.00 86 1010.2
20260504082004 31 337 6.4 9.7 0.00 0.00 0.00 70 1006.7
20260504081004 31 315 9.7 14.5 0.00 0.00 0.00 69 1006.5
20260504050005 27 247 1.6 3.2 0.00 0.00 0.00 80 1009.3
20260504045004 27 135 1.6 1.6 0.00 0.00 0.00 81 1009.5
20260504044004 27 157 1.6 4.8 0.00 0.00 0.00 82 1009.5
20260504043005 28 157 3.2 4.8 0.00 0.00 0.00 77 1009.9
20260504042004 27 22 0.0 1.6 0.00 0.00 0.00 82 1010.2
20260504041005 29 22 1.6 3.2 0.00 0.00 0.00 83 1010.3
20260504040005 30 315 4.8 6.4 0.00 0.00 0.00 76 1010.2
20260504035004 30 315 11.3 16.1 0.00 0.00 0.00 71 1010.2
20260504034005 31 292 11.3 14.5 0.00 0.00 0.00 69 1010.3
20260504033005 31 292 4.8 9.7 0.00 0.00 0.00 70 1010.2
20260504032004 31 292 3.2 4.8 0.00 0.00 0.00 68 1010.4
20260504031004 31 157 1.6 3.2 0.00 0.00 0.00 69 1010.4
20260504030007 31 180 1.6 4.8 0.00 0.00 0.00 69 1010.6
20260504025003 30 202 4.8 9.7 0.00 0.00 0.00 73 1010.9
20260504024005 30 157 8.0 9.7 0.00 0.00 0.00 75 1010.9
20260504023005 30 157 6.4 9.7 0.00 0.00 0.00 74 1011.0
20260504022004 30 135 6.4 12.9 0.00 0.00 0.00 76 1011.1
20260504021005 30 157 4.8 9.7 0.00 0.00 0.00 76 1011.2
20260504020004 30 202 4.8 6.4 0.00 0.00 0.00 76 1011.2
20260504015003 30 247 4.8 6.4 0.00 0.00 0.00 77 1011.0
20260504014005 29 247 4.8 6.4 0.00 0.00 0.00 78 1011.1
20260504013005 28 180 6.4 12.9 0.00 0.00 0.00 78 1010.9
20260504012005 29 135 4.8 4.8 0.00 0.00 0.00 79 1011.0
20260504011005 28 247 6.4 9.7 0.00 0.00 0.00 81 1011.0
20260504010004 28 225 1.6 3.2 0.00 0.00 0.00 82 1010.8
20260504005004 28 202 4.8 9.7 0.00 0.00 0.00 82 1010.7
20260504004005 28 202 3.2 6.4 0.00 0.00 0.00 81 1010.7
20260504003005 28 180 4.8 9.7 0.00 0.00 0.00 83 1010.4
20260504002004 28 157 1.6 4.8 0.00 0.00 0.00 84 1010.1
20260504001004 27 157 0.0 1.6 0.00 0.00 0.00 85 1009.8
20260504000006 27 112 0.0 0.0 0.00 0.00 0.00 86 1009.7
20260503235003 26 135 0.0 1.6 0.00 0.00 0.00 90 1009.2
20260503234005 26 90 0.0 1.6 0.00 0.00 0.00 93 1009.0
20260503233005 26 112 3.2 3.2 0.00 0.00 0.00 93 1008.9
20260503232003 25 90 0.0 1.6 0.00 0.00 0.00 94 1008.9
20260503231005 25 90 0.0 3.2 0.00 0.00 0.00 94 1008.8
20260503230005 25 67 1.6 3.2 0.00 0.00 0.00 94 1008.6
20260503225003 25 112 1.6 3.2 0.00 0.00 0.00 94 1008.6
20260503224004 25 112 1.6 3.2 0.00 0.00 0.00 95 1008.3
20260503223005 25 135 0.0 1.6 0.00 0.00 0.00 94 1008.6
20260503222004 25 157 0.0 1.6 0.00 0.00 0.00 95 1008.3
20260503221004 25 225 0.0 1.6 0.00 0.00 0.00 94 1008.2
20260503220005 25 157 0.0 1.6 0.00 0.00 0.00 94 1008.3
20260503215003 25 135 0.0 1.6 0.00 0.00 0.00 94 1008.3
20260503214004 25 180 1.6 3.2 0.00 0.00 0.00 94 1008.6
20260503213005 25 202 0.0 1.6 0.00 0.00 0.00 93 1008.5
20260503212004 25 157 3.2 6.4 0.00 0.00 0.00 93 1008.7
20260503211005 25 135 0.0 1.6 0.00 0.00 0.00 94 1008.6
20260503210005 25 157 3.2 4.8 0.00 0.00 0.00 93 1008.5
20260503205004 25 225 0.0 1.6 0.00 0.00 0.00 93 1008.4
20260503204005 25 247 1.6 3.2 0.00 0.00 0.00 93 1008.4
20260503203005 25 202 3.2 4.8 0.00 0.00 0.00 92 1008.4
20260503202004 25 157 1.6 3.2 0.00 0.00 0.00 92 1008.2
20260503201005 25 202 1.6 3.2 0.00 0.00 0.00 91 1008.4
20260503195003 26 202 4.8 9.7 0.00 0.00 0.00 90 1008.5
20260503194004 26 270 0.0 3.2 0.00 0.00 0.00 90 1008.2
20260503193004 26 225 0.0 3.2 0.00 0.00 0.00 90 1008.3
20260503192004 26 225 4.8 6.4 0.00 0.00 0.00 91 1008.3
20260503191005 26 180 4.8 6.4 0.00 0.00 0.00 91 1008.3